This demonstration page uses our WeatherBlox Daily Observations layout. Learn more.

39.01783, -85.05884

Hourly Observations for May 29, 2019

Temp ( °F °C ) Dew Point ( °F °C ) Humidity (%) Winds ( mph kmh ) Pressure ( in mb ) Visibility ( mi km ) Precip ( " mm )
12:52 am 00:52 Partly Cloudy 72 22.2 65 18.3 79 79 S 6 9 29.74 1007 10 16.09344 0 0
1:52 am 01:52 Partly Cloudy 71 21.7 65 18.3 81 81 S 6 9 29.74 1007 10 16.09344 0 0
2:52 am 02:52 Mostly Cloudy 70 21.1 65 18.3 84 84 S 7 11 29.74 1007 10 16.09344 0 0
3:52 am 03:52 Cloudy 73 22.8 65 18.3 76 76 SSW 7 11 29.74 1007 10 16.09344 0 0
4:52 am 04:52 Cloudy 74 23.3 66 18.9 76 76 SW 9 15 29.71 1006 10 16.09344 0.001 0.001
5:52 am 05:52 Cloudy 73 22.8 66 18.9 79 79 SSW 7 11 29.71 1006 10 16.09344 0 0
6:52 am 06:52 Cloudy 74 23.3 67 19.4 79 79 SSW 7 11 29.74 1007 10 16.09344 0 0
7:52 am 07:52 Mostly Cloudy 75 23.9 68 20 79 79 SSW 10 17 29.74 1007 10 16.09344 0 0
8:29 am 08:29 Cloudy with Nearby Thunderstorms 77 25 69 20.6 77 77 SW 9 15 29.74 1007 10 16.09344 0 0
8:44 am 08:44 Cloudy with Light Thunderstorms 75 23.9 68 20 79 79 SW 13 20 29.77 1008 10 16.09344 0.001 0.001
8:52 am 08:52 Cloudy with Light Thunderstorms 75 23.9 68 20 79 79 SW 10 17 29.77 1008 8 12.874752 0.001 0.001
8:58 am 08:58 Cloudy with Thunderstorms 74 23.3 68 20 82 82 SW 10 17 29.77 1008 2 3.218688 0.001 0.001
9:13 am 09:13 Cloudy with Heavy Thunderstorms 73 22.8 69 20.6 87 87 SW 13 20 29.8 1009 0.5 0.804672 0.08 2.032
9:22 am 09:22 Cloudy with Thunderstorms 72 22.2 68 20 87 87 SW 17 28 29.8 1009 1.5 2.414016 0.19 4.826
9:39 am 09:39 Cloudy with Light Thunderstorms 71 21.7 67 19.4 87 87 WSW 9 15 29.8 1009 3 4.828032 0.31 7.874
9:52 am 09:52 Cloudy with Light Thunderstorms 70 21.1 68 20 93 93 SW 5 7 29.8 1009 5 8.04672 0.33 8.382
10:02 am 10:02 Cloudy with Nearby Thunderstorms 70 21.1 68 20 93 93 SSW 7 11 29.8 1009 5 8.04672 0.02 0.508
10:22 am 10:22 Cloudy with Light Rain 70 21.1 68 20 93 93 W 3 6 29.77 1008 6 9.656064 0.05 1.27
10:52 am 10:52 Cloudy with Light Rain 70 21.1 67 19.4 90 90 S 14 22 29.77 1008 5 8.04672 0.07 1.778
11:52 am 11:52 Cloudy with Light Rain 68 20 64 17.8 87 87 S 20 31 29.74 1007 7 11.265408 0.05 1.27
12:52 pm 12:52 Cloudy with Light Rain 69 20.6 63 17.2 81 81 SSW 20 31 29.71 1006 7 11.265408 0.02 0.508
1:39 pm 13:39 Cloudy with Light Rain 69 20.6 63 17.2 81 81 W 13 20 29.77 1008 7 11.265408 0.02 0.508
1:52 pm 13:52 Cloudy with Light Rain 68 20 64 17.8 87 87 W 13 20 29.77 1008 9 14.484096 0.04 1.016
2:52 pm 14:52 Cloudy 69 20.6 64 17.8 84 84 SSW 16 26 29.77 1008 10 16.09344 0.01 0.254
3:52 pm 15:52 Mostly Cloudy 70 21.1 64 17.8 82 82 SSW 12 19 29.74 1007 10 16.09344 0 0
4:52 pm 16:52 Mostly Cloudy 76 24.4 66 18.9 72 72 WNW 10 17 29.77 1008 10 16.09344 0 0
5:52 pm 17:52 Partly Cloudy 77 25 65 18.3 66 66 W 7 11 29.74 1007 10 16.09344 0 0
6:52 pm 18:52 Mostly Cloudy 78 25.6 67 19.4 69 69 W 7 11 29.77 1008 10 16.09344 0 0
7:52 pm 19:52 Mostly Cloudy 76 24.4 66 18.9 72 72 SSW 5 7 29.74 1007 10 16.09344 0 0
8:52 pm 20:52 Mostly Cloudy 74 23.3 66 18.9 76 76 Calm 29.77 1008 10 16.09344 0 0
9:52 pm 21:52 Mostly Cloudy 72 22.2 66 18.9 82 82 SSW 5 7 29.8 1009 10 16.09344 0 0
10:52 pm 22:52 Cloudy 72 22.2 66 18.9 82 82 SSW 8 13 29.8 1009 10 16.09344 0 0
11:52 pm 23:52 Cloudy 71 21.7 67 19.4 87 87 SSW 5 7 29.8 1009 10 16.09344 0 0

Powered by AerisWeather